FW7690 Weather Reports


time (UTC)temp
C
wind
direction
speed
KPH
gust
KPH
rain 1hr
cm
rain 24hr
cm
rain mn
cm
humidity
%
barometer
mb
20260507005533 12 0 0.0 0.0 0.00 7.21 0.00 93 1012.9
20260507005032 12 0 0.0 0.0 0.00 7.21 0.00 93 1012.8
20260507004542 12 0 0.0 0.0 0.00 7.21 0.00 93 1012.8
20260507004031 12 0 0.0 0.0 0.00 7.21 0.00 93 1012.8
20260507003533 12 0 0.0 0.0 0.00 7.21 0.00 93 1012.8
20260507003046 12 0 0.0 0.0 0.00 7.21 0.00 93 1012.8
20260507002531 12 0 0.0 0.0 0.00 7.21 0.00 92 1012.9
20260507002033 12 0 0.0 0.0 0.00 7.21 0.00 92 1012.8
20260507001606 12 0 0.0 1.6 0.00 7.21 0.00 92 1012.9
20260507001031 12 0 0.0 4.8 0.00 7.21 0.00 92 1012.7
20260507000531 12 94 0.0 4.8 0.00 7.21 0.00 92 1012.8
20260507000047 12 120 1.6 4.8 0.00 7.21 0.00 92 1012.9
20260506235533 12 104 1.6 6.4 0.00 8.26 0.00 92 1012.9
20260506235036 13 0 0.0 6.4 0.00 8.26 0.00 92 1012.8
20260506234555 13 146 1.6 8.0 0.00 8.26 0.00 92 1012.9
20260506234033 13 128 1.6 9.7 0.00 8.26 0.00 92 1012.8
20260506233533 13 129 3.2 9.7 0.00 8.26 0.00 92 1012.9
20260506233045 13 165 3.2 9.7 0.00 8.26 0.00 92 1012.8
20260506232533 13 149 4.8 9.7 0.00 8.26 0.00 92 1012.9
20260506232034 13 107 4.8 9.7 0.00 8.26 0.00 92 1012.9
20260506231544 13 149 3.2 9.7 0.00 8.26 0.00 92 1012.8
20260506231032 13 115 1.6 6.4 0.00 8.26 0.00 92 1012.9
20260506230531 13 113 3.2 6.4 0.00 8.26 0.00 92 1012.8
20260506230043 13 115 3.2 6.4 0.00 8.26 0.00 92 1012.7
20260506225531 13 120 1.6 4.8 0.00 9.17 0.00 92 1012.7
20260506225033 13 121 1.6 4.8 0.00 9.17 0.00 92 1012.9
20260506224603 13 106 1.6 4.8 0.00 9.17 0.00 92 1012.8
20260506224030 13 131 0.0 3.2 0.00 9.17 0.00 92 1012.9
20260506223530 13 110 0.0 3.2 0.00 9.17 0.00 92 1012.8
20260506223046 13 0 0.0 4.8 0.00 9.17 0.00 92 1013.0
20260506222533 13 0 1.6 8.0 0.00 9.17 0.00 91 1012.9
20260506222034 13 0 3.2 8.0 0.00 9.17 0.00 91 1013.0
20260506221543 13 123 3.2 8.0 0.00 9.17 0.00 92 1013.0
20260506221032 13 101 1.6 8.0 0.00 9.17 0.00 92 1012.9
20260506220531 14 95 1.6 8.0 0.00 9.17 0.00 92 1012.8
20260506215532 14 0 0.0 6.4 0.00 9.17 9.17 92 1012.9
20260506215031 14 0 1.6 6.4 0.00 9.17 9.17 92 1012.7
20260506214549 14 107 0.0 1.6 0.00 9.17 9.17 92 1012.6
20260506214033 15 0 0.0 0.0 0.00 9.17 9.17 92 1012.7
20260506213532 15 0 0.0 0.0 0.00 9.17 9.17 92 1012.6
20260506213047 15 0 0.0 0.0 0.00 9.17 9.17 92 1012.8
20260506212534 15 0 0.0 0.0 0.00 9.17 9.17 92 1012.8
20260506212033 15 0 0.0 0.0 0.00 9.17 9.17 92 1012.8
20260506211551 15 0 0.0 0.0 0.00 9.17 9.17 91 1012.7
20260506211032 15 0 0.0 0.0 0.00 9.17 9.17 91 1012.7
20260506210533 15 0 0.0 0.0 0.00 9.17 9.17 91 1012.6
20260506210047 15 0 0.0 0.0 0.00 9.17 9.17 91 1012.8
20260506205533 15 0 0.0 3.2 0.00 9.17 9.17 91 1012.7
20260506205033 15 0 0.0 3.2 0.00 9.17 9.17 91 1012.5
20260506204544 15 94 0.0 4.8 0.00 9.17 9.17 90 1012.5
20260506204036 15 85 1.6 4.8 0.00 9.17 9.17 90 1012.6
20260506203533 15 79 1.6 3.2 0.00 9.17 9.17 89 1012.3
20260506203056 16 85 0.0 3.2 0.00 9.17 9.17 87 1012.3
20260506202533 16 0 0.0 3.2 0.00 9.17 9.17 86 1012.2
20260506202033 16 297 0.0 1.6 0.00 9.17 9.17 86 1012.2
20260506201546 16 0 0.0 1.6 0.00 9.17 9.17 87 1012.3
20260506201033 16 258 0.0 1.6 0.00 9.17 9.17 87 1012.3
20260506200534 16 0 0.0 1.6 0.00 9.17 9.17 87 1012.3
20260506200043 16 0 0.0 3.2 0.00 9.17 9.17 87 1012.1
20260506195532 16 0 0.0 3.2 0.00 9.17 9.17 87 1012.1
20260506195031 16 259 1.6 3.2 0.00 9.17 9.17 87 1012.0
20260506194551 16 272 0.0 3.2 0.00 9.17 9.17 87 1011.8
20260506194033 16 259 0.0 3.2 0.00 9.17 9.17 87 1011.8
20260506193531 16 267 1.6 3.2 0.00 9.17 9.17 87 1011.7
20260506193049 16 266 1.6 3.2 0.00 9.17 9.17 87 1011.7
20260506192531 16 0 1.6 3.2 0.00 9.17 9.17 87 1011.6
20260506192034 16 271 0.0 1.6 0.00 9.17 9.17 86 1011.5
20260506191551 16 247 0.0 1.6 0.00 9.17 9.17 85 1011.5
20260506191033 16 226 0.0 1.6 0.00 9.17 9.17 85 1011.5
20260506190533 16 0 0.0 1.6 0.00 9.17 9.17 85 1011.3
20260506190047 16 0 0.0 3.2 0.00 9.17 9.17 85 1011.2
20260506185532 16 218 1.6 3.2 0.00 9.50 9.17 84 1011.2
20260506185034 16 209 1.6 3.2 0.00 9.50 9.17 84 1011.1
20260506184542 16 0 0.0 1.6 0.00 9.50 9.17 83 1011.0
20260506184033 16 0 0.0 1.6 0.00 9.50 9.17 83 1011.0
20260506183534 16 255 0.0 1.6 0.00 9.50 9.17 83 1010.8
20260506183046 17 0 0.0 1.6 0.00 9.50 9.17 82 1010.8
20260506182532 17 0 0.0 1.6 0.00 9.50 9.17 82 1010.8
20260506182032 17 255 0.0 6.4 0.00 9.50 9.17 81 1010.8
20260506181559 17 0 0.0 6.4 0.00 9.50 9.17 81 1010.8
20260506181032 17 306 3.2 6.4 0.00 9.50 9.17 80 1010.9
20260506180534 17 0 0.0 11.3 0.00 9.50 9.17 81 1010.7
20260506180050 17 262 4.8 11.3 0.00 9.50 9.17 80 1010.7
20260506175530 17 304 6.4 9.7 0.00 9.50 9.17 80 1010.7
20260506175032 17 309 6.4 12.9 0.00 9.50 9.17 80 1010.5
20260506174544 17 306 6.4 12.9 0.00 9.50 9.17 80 1010.6
20260506174035 17 314 8.0 11.3 0.00 9.50 9.17 80 1010.6
20260506173533 17 333 6.4 11.3 0.00 9.50 9.17 78 1010.6
20260506173120 18 301 6.4 11.3 0.00 9.50 9.17 79 1010.6
20260506172533 18 266 4.8 12.9 0.00 9.50 9.17 80 1010.5
20260506172031 18 317 6.4 12.9 0.00 9.50 9.17 80 1010.3
20260506171555 18 309 6.4 12.9 0.00 9.50 9.17 79 1010.3
20260506171032 18 318 3.2 8.0 0.00 9.50 9.17 79 1010.3
20260506170534 18 0 3.2 8.0 0.00 9.50 9.17 80 1010.4
20260506170045 18 316 4.8 12.9 0.00 9.50 9.17 81 1010.5
20260506165532 17 313 4.8 12.9 0.00 9.50 9.17 80 1010.5
20260506165033 17 283 6.4 12.9 0.00 9.50 9.17 82 1010.6
20260506164546 17 257 6.4 12.9 0.00 9.50 9.17 81 1010.6
20260506164032 17 304 6.4 11.3 0.00 9.50 9.17 80 1010.6
20260506163535 17 273 4.8 11.3 0.00 9.50 9.17 82 1010.7
20260506163051 17 295 4.8 11.3 0.00 9.50 9.17 82 1010.7
20260506162534 17 304 6.4 11.3 0.00 9.50 9.17 82 1010.6
20260506162033 17 281 6.4 11.3 0.00 9.50 9.17 81 1010.5
20260506161549 17 281 6.4 14.5 0.00 9.50 9.17 80 1010.6
20260506161032 17 266 8.0 17.7 0.00 9.50 9.17 80 1010.4
20260506160533 17 282 9.7 17.7 0.00 9.50 9.17 79 1010.6
20260506160059 17 274 9.7 17.7 0.00 9.50 9.17 79 1010.5
20260506155534 17 220 8.0 12.9 0.00 9.50 9.17 81 1010.6
20260506155036 18 245 8.0 12.9 0.00 9.50 9.17 81 1010.6
20260506154548 18 273 8.0 12.9 0.00 9.50 9.17 79 1010.6
20260506154034 18 288 4.8 17.7 0.00 9.50 9.17 79 1010.7
20260506153534 18 281 6.4 17.7 0.00 9.50 9.17 79 1010.8
20260506153050 18 277 9.7 17.7 0.00 9.50 9.17 77 1010.7
20260506152534 18 274 9.7 16.1 0.00 9.50 9.17 77 1010.7
20260506152034 18 308 8.0 14.5 0.00 9.50 9.17 78 1010.5
20260506151555 18 310 8.0 20.9 0.00 9.50 9.17 77 1010.7
20260506151034 18 305 11.3 20.9 0.00 9.50 9.17 75 1010.6
20260506150534 18 286 8.0 19.3 0.00 9.50 9.17 74 1010.7
20260506150049 18 298 11.3 19.3 0.00 9.50 9.17 72 1010.6
20260506145532 18 303 12.9 20.9 0.00 9.50 9.17 68 1010.6
20260506145035 18 273 12.9 20.9 0.00 9.50 9.17 71 1010.4
20260506144550 18 309 9.7 20.9 0.00 9.50 9.17 74 1010.5
20260506144034 18 297 11.3 20.9 0.15 9.50 9.17 74 1010.3
20260506143534 18 304 12.9 20.9 0.33 9.50 9.17 71 1010.3
20260506143050 18 249 11.3 20.9 0.33 9.50 9.17 76 1010.3
20260506142535 18 253 14.5 20.9 0.33 9.50 9.17 77 1010.3
20260506142038 18 273 14.5 20.9 0.33 9.50 9.17 78 1010.2
20260506141545 18 274 9.7 22.5 0.33 9.50 9.17 81 1010.2
20260506141035 18 221 9.7 22.5 0.33 9.50 9.17 85 1010.3
20260506140535 18 221 11.3 22.5 0.33 9.50 9.17 83 1010.3
20260506140053 18 304 9.7 22.5 0.33 9.50 9.17 85 1010.3
20260506135534 17 265 9.7 25.7 0.33 9.50 9.17 87 1010.4
20260506135034 17 262 14.5 25.7 0.33 9.50 9.17 87 1010.4
20260506134549 17 276 14.5 25.7 0.30 9.47 9.14 84 1010.4
20260506134034 18 282 16.1 27.4 0.10 9.27 8.94 85 1010.6
20260506133534 18 267 12.9 27.4 0.00 9.14 8.84 83 1010.5
20260506133048 19 311 9.7 17.7 0.00 9.14 8.84 83 1010.4
20260506132534 19 293 9.7 20.9 0.00 9.14 8.84 83 1010.5
20260506132037 19 320 11.3 22.5 0.00 9.14 8.84 81 1010.5
20260506131558 19 266 9.7 22.5 0.00 9.14 8.84 80 1010.2
20260506131034 19 251 12.9 22.5 0.00 9.14 8.84 80 1010.5
20260506130534 19 293 11.3 25.7 0.00 9.14 8.84 82 1010.5
20260506130053 19 260 11.3 29.0 0.00 9.14 8.84 81 1010.5
20260506125533 19 263 17.7 29.0 0.00 9.19 8.84 80 1010.6
20260506125031 20 262 16.1 32.2 0.00 9.19 8.84 80 1010.6
20260506124546 20 257 20.9 32.2 0.00 9.19 8.84 78 1010.6
20260506124035 20 266 14.5 27.4 0.00 9.19 8.84 78 1010.4
20260506123536 19 264 14.5 32.2 0.00 9.19 8.84 80 1010.5
20260506123047 19 262 16.1 32.2 0.00 9.19 8.84 78 1010.6
20260506122535 19 245 16.1 25.7 0.00 9.19 8.84 82 1010.4
20260506122032 18 271 9.7 16.1 0.00 9.19 8.84 86 1010.4
20260506121541 18 214 8.0 19.3 0.00 9.19 8.84 85 1010.6
20260506121031 18 211 11.3 20.9 0.00 9.19 8.84 84 1010.6
20260506120536 18 143 11.3 24.1 0.00 9.19 8.84 84 1010.5
20260506120056 18 235 16.1 25.7 0.00 9.19 8.84 86 1010.5
20260506115534 18 245 16.1 25.7 0.00 9.37 8.84 87 1010.4
20260506115033 18 250 16.1 24.1 0.00 9.37 8.84 87 1010.4
20260506114546 18 243 16.1 24.1 0.00 9.37 8.84 87 1010.3
20260506114032 18 236 12.9 29.0 0.00 9.37 8.84 88 1010.3
20260506113534 18 263 14.5 29.0 0.00 9.37 8.84 88 1010.2
20260506113044 18 257 12.9 29.0 0.00 9.37 8.84 87 1010.3
20260506112535 18 252 14.5 29.0 0.00 9.37 8.84 87 1010.3
20260506112035 19 240 16.1 29.0 0.00 9.35 8.81 84 1010.3
20260506111542 19 238 14.5 35.4 0.00 9.35 8.81 82 1010.4
20260506111035 19 258 17.7 35.4 0.00 9.35 8.81 82 1010.3
20260506110532 19 158 16.1 32.2 0.00 9.35 8.81 81 1010.2
20260506110055 19 181 19.3 32.2 0.00 9.35 8.81 80 1010.4
20260506105531 19 210 17.7 32.2 0.00 9.40 8.81 82 1010.3
20260506105033 19 226 20.9 30.6 0.00 9.40 8.81 82 1010.1
20260506104550 19 254 14.5 30.6 0.00 9.40 8.81 83 1010.3
20260506104032 19 241 14.5 32.2 0.00 9.40 8.81 81 1010.5
20260506103532 20 227 17.7 33.8 0.00 9.40 8.81 80 1010.3
20260506103047 20 145 16.1 33.8 0.00 9.40 8.81 79 1010.2
20260506102532 20 216 14.5 32.2 0.00 9.40 8.81 79 1010.4
20260506102035 20 197 17.7 32.2 0.00 9.40 8.81 80 1010.2
20260506101544 20 169 19.3 32.2 0.00 9.40 8.81 79 1010.4
20260506101035 20 164 16.1 32.2 0.00 9.40 8.81 79 1010.2
20260506100534 20 152 17.7 30.6 0.00 9.40 8.81 79 1010.3
20260506100043 20 146 17.7 35.4 0.00 9.40 8.81 79 1010.2
20260506095534 20 194 16.1 35.4 0.00 10.36 8.81 81 1010.2
20260506095031 20 243 17.7 35.4 0.00 10.36 8.81 80 1010.2
20260506094556 19 188 19.3 35.4 0.00 10.36 8.81 81 1010.1
20260506094033 19 169 12.9 32.2 0.00 10.36 8.81 81 1010.0
20260506093531 19 238 19.3 32.2 0.00 10.36 8.81 82 1010.1
20260506093047 19 160 16.1 27.4 0.00 10.36 8.81 83 1010.0
20260506092531 18 148 17.7 25.7 0.00 10.36 8.81 83 1010.0
20260506092032 18 173 16.1 22.5 0.00 10.36 8.81 84 1010.0
20260506091549 18 207 11.3 24.1 0.00 10.36 8.81 84 1010.0
20260506091033 18 157 14.5 24.1 0.00 10.36 8.81 84 1010.0
20260506090534 18 174 12.9 24.1 0.00 10.36 8.81 85 1010.1
20260506090048 18 129 12.9 29.0 0.00 10.36 8.81 85 1010.1
20260506085534 18 175 12.9 29.0 0.00 11.07 8.81 86 1010.2
20260506085034 18 212 14.5 29.0 0.00 11.07 8.81 86 1010.2
20260506084547 18 212 12.9 29.0 0.00 11.07 8.81 87 1010.1
20260506084034 17 169 9.7 19.3 0.00 11.07 8.81 90 1009.9
20260506083536 17 156 9.7 17.7 0.00 11.07 8.81 92 1010.1
20260506083047 17 173 8.0 17.7 0.00 11.07 8.81 95 1010.1
20260506082535 17 158 9.7 17.7 0.00 11.07 8.81 96 1010.1
20260506082035 16 183 9.7 22.5 0.00 11.07 8.81 96 1010.2
20260506081547 16 139 12.9 27.4 0.00 11.07 8.81 96 1010.0
20260506081034 16 171 17.7 27.4 0.00 11.07 8.81 96 1009.9
20260506080533 16 212 12.9 24.1 0.00 11.07 8.81 96 1010.0
20260506073048 15 165 11.3 30.6 0.00 11.07 8.81 97 1010.0
20260506072536 15 211 12.9 30.6 0.00 11.07 8.81 97 1010.0
20260506072031 15 193 14.5 27.4 0.00 11.07 8.81 97 1010.0
20260506071550 15 205 14.5 24.1 0.00 11.07 8.81 97 1009.9
20260506071035 15 157 14.5 24.1 0.00 11.07 8.81 97 1009.8
20260506070532 15 189 12.9 24.1 0.00 11.07 8.81 97 1009.9
20260506062033 15 143 8.0 17.7 0.20 11.07 8.81 97 1009.7
20260506061551 15 148 9.7 17.7 0.20 11.07 8.81 97 1009.8
20260506061033 15 109 4.8 11.3 0.20 11.07 8.81 97 1009.8
20260506060534 15 188 3.2 11.3 0.20 11.07 8.81 97 1010.0
20260506051034 15 0 0.0 3.2 0.99 10.87 8.59 97 1009.8
20260506050531 15 0 0.0 9.7 1.19 10.87 8.59 97 1009.8
20260506045034 15 0 1.6 4.8 1.40 11.13 8.59 97 1009.7
20260506044544 15 133 1.6 8.0 1.40 11.13 8.59 97 1009.6
20260506044034 15 90 1.6 14.5 1.40 11.13 8.59 97 1009.5
20260506043532 15 132 8.0 14.5 1.37 11.10 8.56 97 1009.6
20260506043047 15 140 8.0 16.1 1.27 11.00 8.46 97 1009.6
20260506042532 15 119 6.4 16.1 1.12 10.74 8.20 97 1009.6
20260506042031 15 127 6.4 16.1 1.47 10.62 8.08 97 1009.6
20260506041550 15 145 4.8 16.1 1.63 10.29 7.75 97 1009.8
20260506041032 15 113 6.4 12.9 1.78 10.13 7.59 97 1009.7
20260506040532 15 102 6.4 22.5 1.88 9.91 7.37 97 1009.6
20260506040047 15 131 9.7 22.5 2.24 9.80 7.26 97 1009.6
20260506035531 15 180 4.8 12.9 2.57 10.67 7.24 97 1009.7
20260506035033 15 243 1.6 8.0 2.74 10.62 7.19 97 1009.8
20260506034549 15 219 1.6 12.9 2.95 10.62 7.19 97 1009.7
20260506034034 15 0 3.2 12.9 3.02 10.62 7.19 97 1009.6
20260506033534 15 81 3.2 12.9 3.07 10.62 7.19 97 1009.5
20260506033045 15 89 3.2 16.1 3.35 10.62 7.19 97 1009.5
20260506032531 15 68 8.0 16.1 3.66 10.49 7.04 97 1009.5
20260506032034 15 69 9.7 16.1 3.63 9.98 6.55 97 1009.5
20260506031550 15 72 8.0 14.5 3.38 9.50 6.07 97 1009.8
20260506031035 15 100 6.4 11.3 3.17 9.22 5.79 97 1009.9
20260506030534 15 105 3.2 8.0 2.82 8.84 5.41 97 1010.1
20260506030045 15 133 3.2 4.8 2.41 8.38 4.95 97 1010.3
20260506025532 15 0 0.0 4.8 2.08 8.10 4.62 97 1010.2
20260506025033 15 96 1.6 9.7 1.88 7.90 4.42 97 1010.0
20260506024557 15 120 3.2 9.7 1.70 7.70 4.22 97 1010.1
20260506024032 15 134 4.8 12.9 1.63 7.62 4.14 97 1010.1
20260506023532 15 105 4.8 19.3 1.57 7.59 4.11 97 1010.1
20260506023043 15 140 9.7 19.3 1.24 7.24 3.76 97 1010.4
20260506022533 15 195 4.8 12.9 0.81 6.81 3.33 97 1010.4
20260506022031 15 65 4.8 12.9 0.36 6.38 2.90 97 1010.0
20260506021548 15 115 4.8 12.9 0.18 6.17 2.69 97 1009.8
20260506021031 15 99 3.2 11.3 0.08 6.07 2.59 97 1010.2
20260506020531 15 104 4.8 11.3 0.03 6.02 2.54 97 1010.0
20260506020047 15 135 3.2 8.0 0.00 6.02 2.54 97 1009.9
20260506015534 15 128 1.6 8.0 0.00 6.10 2.51 97 1010.1
20260506015032 15 109 1.6 8.0 0.00 6.10 2.51 97 1010.0
20260506014546 15 86 3.2 8.0 0.13 6.10 2.51 97 1010.1
20260506014034 15 128 1.6 9.7 0.28 6.10 2.51 97 1010.3
20260506013534 15 146 1.6 9.7 0.38 6.10 2.51 97 1010.3
20260506013043 14 100 0.0 4.8 0.46 6.10 2.51 97 1010.5
20260506012533 14 0 0.0 3.2 0.46 6.10 2.51 97 1010.4
20260506012034 14 0 0.0 6.4 0.46 6.10 2.51 97 1010.5
20260506011540 14 100 1.6 9.7 0.48 6.10 2.51 97 1010.3
20260506011033 14 64 3.2 9.7 0.53 6.10 2.51 97 1010.5
20260506010532 14 49 6.4 8.0 0.56 6.10 2.51 97 1010.3
20260506010049 14 68 1.6 11.3 0.56 6.10 2.51 97 1010.4